This is the latest recevied weather packets stored in our database for station/object KI4BIY. If no packets are shown the sender has not sent any weather packets the latest 10 day(s).
| Time | Temp. | Humidity | Pressure | Rain* | Wind** | Luminosity | Snow |
|---|---|---|---|---|---|---|---|
| 1778258566 | 22.78° C | 47% | 1014.5 hPa | 0 mm | - | 645 W/m² | - |
| 1778258264 | 22.78° C | 48% | 1014.9 hPa | 0 mm | - | 631 W/m² | - |
| 1778257962 | 22.22° C | 46% | 1014.9 hPa | 0 mm | - | 681 W/m² | - |
| 1778257657 | 22.22° C | 49% | 1014.8 hPa | 0 mm | - | 728 W/m² | - |
| 1778257354 | 22.22° C | 51% | 1014.8 hPa | 0 mm | - | 725 W/m² | - |
| 1778257051 | 22.22° C | 50% | 1014.8 hPa | 0 mm | - | 671 W/m² | - |
| 1778256748 | 22.22° C | 54% | 1014.9 hPa | 0 mm | - | 606 W/m² | - |
| 1778256446 | 22.22° C | 50% | 1015.1 hPa | 0 mm | - | 800 W/m² | - |
| 1778256144 | 21.67° C | 48% | 1014.9 hPa | 0 mm | - | 834 W/m² | - |
| 1778255840 | 21.67° C | 47% | 1015.3 hPa | 0 mm | - | 784 W/m² | - |
| 1778255538 | 21.11° C | 53% | 1015.3 hPa | 0 mm | - | 772 W/m² | - |
| 1778255234 | 21.67° C | 57% | 1015.4 hPa | 0 mm | - | 738 W/m² | - |
| 1778254932 | 21.11° C | 53% | 1015.4 hPa | 0 mm | - | 844 W/m² | - |
| 1778254628 | 21.11° C | 55% | 1015.4 hPa | 0 mm | - | 894 W/m² | - |
| 1778254325 | 21.11° C | 57% | 1015.1 hPa | 0 mm | - | 841 W/m² | - |
| 1778254022 | 20.56° C | 53% | 1015.4 hPa | 0 mm | - | 803 W/m² | - |
| 1778253718 | 21.11° C | 54% | 1015.7 hPa | 0 mm | - | 883 W/m² | - |
| 1778253414 | 20.56° C | 56% | 1015.6 hPa | 0 mm | - | 837 W/m² | - |
| 1778253111 | 21.11° C | 55% | 1015.7 hPa | 0 mm | - | 724 W/m² | - |
| 1778252808 | 20.56° C | 56% | 1015.4 hPa | 0 mm | - | 687 W/m² | - |
| 1778252504 | 20.56° C | 56% | 1015.6 hPa | 0 mm | - | 716 W/m² | - |
| 1778252200 | 20.56° C | 59% | 1015.7 hPa | 0 mm | - | 716 W/m² | - |
| 1778251897 | 20° C | 61% | 1015.5 hPa | 0 mm | - | 678 W/m² | - |
| 1778251595 | 20° C | 59% | 1015.8 hPa | 0 mm | - | 681 W/m² | - |
| 1778251292 | 20° C | 60% | 1016 hPa | 0 mm | - | 677 W/m² | - |
* Rain latest hour (hover to see other rain measurements)
** Current wind speed in m/s (hover to see current wind gust speed)